Year,Month,Day,Hour,Minute,Value (Times are PST for temperature in C)
2013,08,09,00,00,16.30
2013,08,09,00,01,16.30
2013,08,09,00,02,16.30
2013,08,09,00,03,16.30
2013,08,09,00,04,16.30
2013,08,09,00,05,16.30
2013,08,09,00,06,16.30
2013,08,09,00,07,16.30
2013,08,09,00,08,16.30
2013,08,09,00,09,16.30
2013,08,09,00,10,16.30
2013,08,09,00,11,16.30
2013,08,09,00,12,16.30
2013,08,09,00,13,16.30
2013,08,09,00,14,16.30
2013,08,09,00,15,16.30
2013,08,09,00,16,16.30
2013,08,09,00,17,16.30
2013,08,09,00,18,16.30
2013,08,09,00,19,16.30
2013,08,09,00,20,16.30
2013,08,09,00,21,16.30
2013,08,09,00,22,16.30
2013,08,09,00,23,16.30
2013,08,09,00,24,16.30
2013,08,09,00,25,16.30
2013,08,09,00,26,16.30
2013,08,09,00,27,16.30
2013,08,09,00,28,16.30
2013,08,09,00,29,16.30
2013,08,09,00,30,16.30
2013,08,09,00,31,16.30
2013,08,09,00,32,16.20
2013,08,09,00,33,16.20
2013,08,09,00,34,16.20
2013,08,09,00,35,16.20
2013,08,09,00,36,16.10
2013,08,09,00,37,16.10
2013,08,09,00,38,16.10
2013,08,09,00,39,16.10
2013,08,09,00,40,16.10
2013,08,09,00,41,16.00
2013,08,09,00,42,15.90
2013,08,09,00,43,15.90
2013,08,09,00,44,15.90
2013,08,09,00,45,15.80
2013,08,09,00,46,15.80
2013,08,09,00,47,15.80
2013,08,09,00,48,15.80
2013,08,09,00,49,15.80
2013,08,09,00,50,15.80
2013,08,09,00,51,15.80
2013,08,09,00,52,15.80
2013,08,09,00,53,15.80
2013,08,09,00,54,15.80
2013,08,09,00,55,15.70
2013,08,09,00,56,15.70
2013,08,09,00,57,15.70
2013,08,09,00,58,15.70
2013,08,09,00,59,15.70
2013,08,09,01,00,15.70
2013,08,09,01,01,15.70
2013,08,09,01,02,15.70
2013,08,09,01,03,15.70
2013,08,09,01,04,15.70
2013,08,09,01,05,15.70
2013,08,09,01,06,15.70
2013,08,09,01,07,15.70
2013,08,09,01,08,15.70
2013,08,09,01,09,15.70
2013,08,09,01,10,15.70
2013,08,09,01,11,15.70
2013,08,09,01,12,15.70
2013,08,09,01,13,15.70
2013,08,09,01,14,15.70
2013,08,09,01,15,15.70
2013,08,09,01,16,15.70
2013,08,09,01,17,15.70
2013,08,09,01,18,15.70
2013,08,09,01,19,15.70
2013,08,09,01,20,15.70
2013,08,09,01,21,15.70
2013,08,09,01,22,15.70
2013,08,09,01,23,15.60
2013,08,09,01,24,15.60
2013,08,09,01,25,15.60
2013,08,09,01,26,15.60
2013,08,09,01,27,15.60
2013,08,09,01,28,15.60
2013,08,09,01,29,15.60
2013,08,09,01,30,15.60
2013,08,09,01,31,15.60
2013,08,09,01,32,15.60
2013,08,09,01,33,15.60
2013,08,09,01,34,15.60
2013,08,09,01,35,15.50
2013,08,09,01,36,15.50
2013,08,09,01,37,15.50
2013,08,09,01,38,15.50
2013,08,09,01,39,15.50
2013,08,09,01,40,15.50
2013,08,09,01,41,15.50
2013,08,09,01,42,15.40
2013,08,09,01,43,15.40
2013,08,09,01,44,15.40
2013,08,09,01,45,15.40
2013,08,09,01,46,15.40
2013,08,09,01,47,15.40
2013,08,09,01,48,15.40
2013,08,09,01,49,15.40
2013,08,09,01,50,15.40
2013,08,09,01,51,15.40
2013,08,09,01,52,15.40
2013,08,09,01,53,15.30
2013,08,09,01,54,15.30
2013,08,09,01,55,15.30
2013,08,09,01,56,15.30
2013,08,09,01,57,15.30
2013,08,09,01,58,15.30
2013,08,09,01,59,15.30
2013,08,09,02,00,15.20
2013,08,09,02,01,15.20
2013,08,09,02,02,15.20
2013,08,09,02,03,15.20
2013,08,09,02,04,15.20
2013,08,09,02,05,15.10
2013,08,09,02,06,15.10
2013,08,09,02,07,15.10
2013,08,09,02,08,15.10
2013,08,09,02,09,15.10
2013,08,09,02,10,15.00
2013,08,09,02,11,15.00
2013,08,09,02,12,15.00
2013,08,09,02,13,15.00
2013,08,09,02,14,14.90
2013,08,09,02,15,14.90
2013,08,09,02,16,14.90
2013,08,09,02,17,14.90
2013,08,09,02,18,14.90
2013,08,09,02,19,14.90
2013,08,09,02,20,14.90
2013,08,09,02,21,14.90
2013,08,09,02,22,14.90
2013,08,09,02,23,14.90
2013,08,09,02,24,14.80
2013,08,09,02,25,14.80
2013,08,09,02,26,14.80
2013,08,09,02,27,14.80
2013,08,09,02,28,14.80
2013,08,09,02,29,14.80
2013,08,09,02,30,14.80
2013,08,09,02,31,14.80
2013,08,09,02,32,14.80
2013,08,09,02,33,14.80
2013,08,09,02,34,14.80
2013,08,09,02,35,14.80
2013,08,09,02,36,14.80
2013,08,09,02,37,14.80
2013,08,09,02,38,14.80
2013,08,09,02,39,14.80
2013,08,09,02,40,14.80
2013,08,09,02,41,14.80
2013,08,09,02,42,14.80
2013,08,09,02,43,14.80
2013,08,09,02,44,14.70
2013,08,09,02,45,14.70
2013,08,09,02,46,14.70
2013,08,09,02,47,14.70
2013,08,09,02,48,14.70
2013,08,09,02,49,14.70
2013,08,09,02,50,14.70
2013,08,09,02,51,14.70
2013,08,09,02,52,14.70
2013,08,09,02,53,14.70
2013,08,09,02,54,14.70
2013,08,09,02,55,14.70
2013,08,09,02,56,14.70
2013,08,09,02,57,14.60
2013,08,09,02,58,14.60
2013,08,09,02,59,14.60
2013,08,09,03,00,14.60
2013,08,09,03,01,14.60
2013,08,09,03,02,14.60
2013,08,09,03,03,14.60
2013,08,09,03,04,14.60
2013,08,09,03,05,14.50
2013,08,09,03,06,14.50
2013,08,09,03,07,14.50
2013,08,09,03,08,14.40
2013,08,09,03,09,14.40
2013,08,09,03,10,14.40
2013,08,09,03,11,14.30
2013,08,09,03,12,14.30
2013,08,09,03,13,14.30
2013,08,09,03,14,14.30
2013,08,09,03,15,14.20
2013,08,09,03,16,14.20
2013,08,09,03,17,14.20
2013,08,09,03,18,14.20
2013,08,09,03,19,14.20
2013,08,09,03,20,14.20
2013,08,09,03,21,14.20
2013,08,09,03,22,14.20
2013,08,09,03,23,14.20
2013,08,09,03,24,14.20
2013,08,09,03,25,14.20
2013,08,09,03,26,14.20
2013,08,09,03,27,14.20
2013,08,09,03,28,14.20
2013,08,09,03,29,14.20
2013,08,09,03,30,14.20
2013,08,09,03,31,14.20
2013,08,09,03,32,14.10
2013,08,09,03,33,14.10
2013,08,09,03,34,14.10
2013,08,09,03,35,14.10
2013,08,09,03,36,14.10
2013,08,09,03,37,14.10
2013,08,09,03,38,14.10
2013,08,09,03,39,14.10
2013,08,09,03,40,14.10
2013,08,09,03,41,14.10
2013,08,09,03,42,14.10
2013,08,09,03,43,14.00
2013,08,09,03,44,14.00
2013,08,09,03,45,14.00
2013,08,09,03,46,14.00
2013,08,09,03,47,13.90
2013,08,09,03,48,13.90
2013,08,09,03,49,13.90
2013,08,09,03,50,13.90
2013,08,09,03,51,13.90
2013,08,09,03,52,13.90
2013,08,09,03,53,13.90
2013,08,09,03,54,13.90
2013,08,09,03,55,13.90
2013,08,09,03,56,13.90
2013,08,09,03,57,13.90
2013,08,09,03,58,13.90
2013,08,09,03,59,13.80
2013,08,09,04,00,13.80
2013,08,09,04,01,13.80
2013,08,09,04,02,13.80
2013,08,09,04,03,13.80
2013,08,09,04,04,13.80
2013,08,09,04,05,13.80
2013,08,09,04,06,13.80
2013,08,09,04,07,13.70
2013,08,09,04,08,13.70
2013,08,09,04,09,13.70
2013,08,09,04,10,13.70
2013,08,09,04,11,13.70
2013,08,09,04,12,13.70
2013,08,09,04,13,13.70
2013,08,09,04,14,13.70
2013,08,09,04,15,13.70
2013,08,09,04,16,13.60
2013,08,09,04,17,13.60
2013,08,09,04,18,13.60
2013,08,09,04,19,13.60
2013,08,09,04,20,13.60
2013,08,09,04,21,13.60
2013,08,09,04,22,13.60
2013,08,09,04,23,13.60
2013,08,09,04,24,13.60
2013,08,09,04,25,13.60
2013,08,09,04,26,13.60
2013,08,09,04,27,13.60
2013,08,09,04,28,13.60
2013,08,09,04,29,13.60
2013,08,09,04,30,13.60
2013,08,09,04,31,13.60
2013,08,09,04,32,13.60
2013,08,09,04,33,13.60
2013,08,09,04,34,13.60
2013,08,09,04,35,13.60
2013,08,09,04,36,13.50
2013,08,09,04,37,13.50
2013,08,09,04,38,13.50
2013,08,09,04,39,13.50
2013,08,09,04,40,13.40
2013,08,09,04,41,13.40
2013,08,09,04,42,13.40
2013,08,09,04,43,13.30
2013,08,09,04,44,13.30
2013,08,09,04,45,13.30
2013,08,09,04,46,13.30
2013,08,09,04,47,13.30
2013,08,09,04,48,13.30
2013,08,09,04,49,13.30
2013,08,09,04,50,13.30
2013,08,09,04,51,13.30
2013,08,09,04,52,13.30
2013,08,09,04,53,13.30
2013,08,09,04,54,13.30
2013,08,09,04,55,13.30
2013,08,09,04,56,13.30
2013,08,09,04,57,13.30
2013,08,09,04,58,13.20
2013,08,09,04,59,13.20
2013,08,09,05,00,13.20
2013,08,09,05,01,13.20
2013,08,09,05,02,13.20
2013,08,09,05,03,13.20
2013,08,09,05,04,13.20
2013,08,09,05,05,13.10
2013,08,09,05,06,13.10
2013,08,09,05,07,13.10
2013,08,09,05,08,13.10
2013,08,09,05,09,13.10
2013,08,09,05,10,13.10
2013,08,09,05,11,13.10
2013,08,09,05,12,13.10
2013,08,09,05,13,13.20
2013,08,09,05,14,13.20
2013,08,09,05,15,13.20
2013,08,09,05,16,13.20
2013,08,09,05,17,13.20
2013,08,09,05,18,13.20
2013,08,09,05,19,13.20
2013,08,09,05,20,13.20
2013,08,09,05,21,13.20
2013,08,09,05,22,13.20
2013,08,09,05,23,13.30
2013,08,09,05,24,13.30
2013,08,09,05,25,13.30
2013,08,09,05,26,13.30
2013,08,09,05,27,13.30
2013,08,09,05,28,13.30
2013,08,09,05,29,13.20
2013,08,09,05,30,13.20
2013,08,09,05,31,13.20
2013,08,09,05,32,13.20
2013,08,09,05,33,13.20
2013,08,09,05,34,13.20
2013,08,09,05,35,13.20
2013,08,09,05,36,13.10
2013,08,09,05,37,13.10
2013,08,09,05,38,13.10
2013,08,09,05,39,13.10
2013,08,09,05,40,13.00
2013,08,09,05,41,13.00
2013,08,09,05,42,13.00
2013,08,09,05,43,12.90
2013,08,09,05,44,12.90
2013,08,09,05,45,12.90
2013,08,09,05,46,12.90
2013,08,09,05,47,12.80
2013,08,09,05,48,12.80
2013,08,09,05,49,12.80
2013,08,09,05,50,12.80
2013,08,09,05,51,12.80
2013,08,09,05,52,12.80
2013,08,09,05,53,12.80
2013,08,09,05,54,12.80
2013,08,09,05,55,12.80
2013,08,09,05,56,12.80
2013,08,09,05,57,12.80
2013,08,09,05,58,12.80
2013,08,09,05,59,12.80
2013,08,09,06,00,12.80
2013,08,09,06,01,12.80
2013,08,09,06,02,12.80
2013,08,09,06,03,12.80
2013,08,09,06,04,12.80
2013,08,09,06,05,12.80
2013,08,09,06,06,12.80
2013,08,09,06,07,12.80
2013,08,09,06,08,12.80
2013,08,09,06,09,12.80
2013,08,09,06,10,12.80
2013,08,09,06,11,12.80
2013,08,09,06,12,12.80
2013,08,09,06,13,12.80
2013,08,09,06,14,12.80
2013,08,09,06,15,12.80
2013,08,09,06,16,12.70
2013,08,09,06,17,12.70
2013,08,09,06,18,12.70
2013,08,09,06,19,12.70
2013,08,09,06,20,12.70
2013,08,09,06,21,12.70
2013,08,09,06,22,12.70
2013,08,09,06,23,12.70
2013,08,09,06,24,12.70
2013,08,09,06,25,12.70
2013,08,09,06,26,12.70
2013,08,09,06,27,12.70
2013,08,09,06,28,12.70
2013,08,09,06,29,12.80
2013,08,09,06,30,12.80
2013,08,09,06,31,12.80
2013,08,09,06,32,12.80
2013,08,09,06,33,12.80
2013,08,09,06,34,12.90
2013,08,09,06,35,12.90
2013,08,09,06,36,13.00
2013,08,09,06,37,13.00
2013,08,09,06,38,13.10
2013,08,09,06,39,13.10
2013,08,09,06,40,13.20
2013,08,09,06,41,13.20
2013,08,09,06,42,13.30
2013,08,09,06,43,13.30
2013,08,09,06,44,13.30
2013,08,09,06,45,13.40
2013,08,09,06,46,13.40
2013,08,09,06,47,13.50
2013,08,09,06,48,13.50
2013,08,09,06,49,13.60
2013,08,09,06,50,13.70
2013,08,09,06,51,13.70
2013,08,09,06,52,13.70
2013,08,09,06,53,13.70
2013,08,09,06,54,13.80
2013,08,09,06,55,13.80
2013,08,09,06,56,13.90
2013,08,09,06,57,13.90
2013,08,09,06,58,13.90
2013,08,09,06,59,13.90
2013,08,09,07,00,13.90
2013,08,09,07,01,14.00
2013,08,09,07,02,14.00
2013,08,09,07,03,14.00
2013,08,09,07,04,14.10
2013,08,09,07,05,14.20
2013,08,09,07,06,14.30
2013,08,09,07,07,14.50
2013,08,09,07,08,14.50
2013,08,09,07,09,14.60
2013,08,09,07,10,14.70
2013,08,09,07,11,14.80
2013,08,09,07,12,14.90
2013,08,09,07,13,15.00
2013,08,09,07,14,15.10
2013,08,09,07,15,15.10
2013,08,09,07,16,15.30
2013,08,09,07,17,15.30
2013,08,09,07,18,15.40
2013,08,09,07,19,15.50
2013,08,09,07,20,15.50
2013,08,09,07,21,15.60
2013,08,09,07,22,15.70
2013,08,09,07,23,15.80
2013,08,09,07,24,15.80
2013,08,09,07,25,15.90
2013,08,09,07,26,16.10
2013,08,09,07,27,16.10
2013,08,09,07,28,16.10
2013,08,09,07,29,16.10
2013,08,09,07,30,16.10
2013,08,09,07,31,16.10
2013,08,09,07,32,16.20
2013,08,09,07,33,16.20
2013,08,09,07,34,16.20
2013,08,09,07,35,16.20
2013,08,09,07,36,16.20
2013,08,09,07,37,16.30
2013,08,09,07,38,16.30
2013,08,09,07,39,16.30
2013,08,09,07,40,16.20
2013,08,09,07,41,16.10
2013,08,09,07,42,16.10
2013,08,09,07,43,16.00
2013,08,09,07,44,15.90
2013,08,09,07,45,15.90
2013,08,09,07,46,15.90
2013,08,09,07,47,15.90
2013,08,09,07,48,15.90
2013,08,09,07,49,15.90
2013,08,09,07,50,15.90
2013,08,09,07,51,15.90
2013,08,09,07,52,15.90
2013,08,09,07,53,15.90
2013,08,09,07,54,16.00
2013,08,09,07,55,16.10
2013,08,09,07,56,16.10
2013,08,09,07,57,16.10
2013,08,09,07,58,16.10
2013,08,09,07,59,16.10
2013,08,09,08,00,16.10
2013,08,09,08,01,16.10
2013,08,09,08,02,16.20
2013,08,09,08,03,16.20
2013,08,09,08,04,16.20
2013,08,09,08,05,16.10
2013,08,09,08,06,16.10
2013,08,09,08,07,16.10
2013,08,09,08,08,16.10
2013,08,09,08,09,16.10
2013,08,09,08,10,16.10
2013,08,09,08,11,16.10
2013,08,09,08,12,16.10
2013,08,09,08,13,16.10
2013,08,09,08,14,16.20
2013,08,09,08,15,16.20
2013,08,09,08,16,16.30
2013,08,09,08,17,16.30
2013,08,09,08,18,16.40
2013,08,09,08,19,16.40
2013,08,09,08,20,16.40
2013,08,09,08,21,16.50
2013,08,09,08,22,16.60
2013,08,09,08,23,16.70
2013,08,09,08,24,16.70
2013,08,09,08,25,16.80
2013,08,09,08,26,16.90
2013,08,09,08,27,17.00
2013,08,09,08,28,17.10
2013,08,09,08,29,17.10
2013,08,09,08,30,17.20
2013,08,09,08,31,17.30
2013,08,09,08,32,17.40
2013,08,09,08,33,17.50
2013,08,09,08,34,17.70
2013,08,09,08,35,17.80
2013,08,09,08,36,17.90
2013,08,09,08,37,17.90
2013,08,09,08,38,18.10
2013,08,09,08,39,18.10
2013,08,09,08,40,18.20
2013,08,09,08,41,18.30
2013,08,09,08,42,18.40
2013,08,09,08,43,18.50
2013,08,09,08,44,18.50
2013,08,09,08,45,18.50
2013,08,09,08,46,18.50
2013,08,09,08,47,18.50
2013,08,09,08,48,18.50
2013,08,09,08,49,18.50
2013,08,09,08,50,18.60
2013,08,09,08,51,18.60
2013,08,09,08,52,18.70
2013,08,09,08,53,18.70
2013,08,09,08,54,18.80
2013,08,09,08,55,18.90
2013,08,09,08,56,19.00
2013,08,09,08,57,19.10
2013,08,09,08,58,19.20
2013,08,09,08,59,19.40
2013,08,09,09,00,19.60
2013,08,09,09,01,19.70
2013,08,09,09,02,19.90
2013,08,09,09,03,20.00
2013,08,09,09,04,20.10
2013,08,09,09,05,20.20
2013,08,09,09,06,20.40
2013,08,09,09,07,20.50
2013,08,09,09,08,20.60
2013,08,09,09,09,20.70
2013,08,09,09,10,20.80
2013,08,09,09,11,21.00
2013,08,09,09,12,21.00
2013,08,09,09,13,21.10
2013,08,09,09,14,21.30
2013,08,09,09,15,21.30
2013,08,09,09,16,21.50
2013,08,09,09,17,21.60
2013,08,09,09,18,21.60
2013,08,09,09,19,21.60
2013,08,09,09,20,21.60
2013,08,09,09,21,21.60
2013,08,09,09,22,21.70
2013,08,09,09,23,21.70
2013,08,09,09,24,21.80
2013,08,09,09,25,21.90
2013,08,09,09,26,22.00
2013,08,09,09,27,22.10
2013,08,09,09,28,22.20
2013,08,09,09,29,22.20
2013,08,09,09,30,22.30
2013,08,09,09,31,22.30
2013,08,09,09,32,22.40
2013,08,09,09,33,22.50
2013,08,09,09,34,22.60
2013,08,09,09,35,22.60
2013,08,09,09,36,22.60
2013,08,09,09,37,22.60
2013,08,09,09,38,22.50
2013,08,09,09,39,22.40
2013,08,09,09,40,22.30
2013,08,09,09,41,22.10
2013,08,09,09,42,22.00
2013,08,09,09,43,21.90
2013,08,09,09,44,21.60
2013,08,09,09,45,21.40
2013,08,09,09,46,21.20
2013,08,09,09,47,21.00
2013,08,09,09,48,20.80
2013,08,09,09,49,20.70
2013,08,09,09,50,20.70
2013,08,09,09,51,20.60
2013,08,09,09,52,20.50
2013,08,09,09,53,20.50
2013,08,09,09,54,20.30
2013,08,09,09,55,20.20
2013,08,09,09,56,20.10
2013,08,09,09,57,19.90
2013,08,09,09,58,19.90
2013,08,09,09,59,19.70
2013,08,09,10,00,19.70
2013,08,09,10,01,19.60
2013,08,09,10,02,19.50
2013,08,09,10,03,19.40
2013,08,09,10,04,19.40
2013,08,09,10,05,19.40
2013,08,09,10,06,19.30
2013,08,09,10,07,19.20
2013,08,09,10,08,19.10
2013,08,09,10,09,19.10
2013,08,09,10,10,19.10
2013,08,09,10,11,19.20
2013,08,09,10,12,19.30
2013,08,09,10,13,19.30
2013,08,09,10,14,19.40
2013,08,09,10,15,19.50
2013,08,09,10,16,19.70
2013,08,09,10,17,19.80
2013,08,09,10,18,19.90
2013,08,09,10,19,20.10
2013,08,09,10,20,20.10
2013,08,09,10,21,20.10
2013,08,09,10,22,20.10
2013,08,09,10,23,20.20
2013,08,09,10,24,20.20
2013,08,09,10,25,20.30
2013,08,09,10,26,20.40
2013,08,09,10,27,20.50
2013,08,09,10,28,20.60
2013,08,09,10,29,20.70
2013,08,09,10,30,20.70
2013,08,09,10,31,20.80
2013,08,09,10,32,20.90
2013,08,09,10,33,21.00
2013,08,09,10,34,21.10
2013,08,09,10,35,21.10
2013,08,09,10,36,21.10
2013,08,09,10,37,21.10
2013,08,09,10,38,21.10
2013,08,09,10,39,21.10
2013,08,09,10,40,21.10
2013,08,09,10,41,21.10
2013,08,09,10,42,21.30
2013,08,09,10,43,21.30
2013,08,09,10,44,21.50
2013,08,09,10,45,21.60
2013,08,09,10,46,21.70
2013,08,09,10,47,21.80
2013,08,09,10,48,22.00
2013,08,09,10,49,22.00
2013,08,09,10,50,22.10
2013,08,09,10,51,22.20
2013,08,09,10,52,22.30
2013,08,09,10,53,22.30
2013,08,09,10,54,22.30
2013,08,09,10,55,22.50
2013,08,09,10,56,22.60
2013,08,09,10,57,22.60
2013,08,09,10,58,22.60
2013,08,09,10,59,22.60
2013,08,09,11,00,22.60
2013,08,09,11,01,22.60
2013,08,09,11,02,22.50
2013,08,09,11,03,22.50
2013,08,09,11,04,22.40
2013,08,09,11,05,22.40
2013,08,09,11,06,22.40
2013,08,09,11,07,22.40
2013,08,09,11,08,22.40
2013,08,09,11,09,22.30
2013,08,09,11,10,22.20
2013,08,09,11,11,22.20
2013,08,09,11,12,22.20
2013,08,09,11,13,22.20
2013,08,09,11,14,22.20
2013,08,09,11,15,22.10
2013,08,09,11,16,22.20
2013,08,09,11,17,22.20
2013,08,09,11,18,22.20
2013,08,09,11,19,22.20
2013,08,09,11,20,22.10
2013,08,09,11,21,22.00
2013,08,09,11,22,22.00
2013,08,09,11,23,21.90
2013,08,09,11,24,21.90
2013,08,09,11,25,21.80
2013,08,09,11,26,21.70
2013,08,09,11,27,21.60
2013,08,09,11,28,21.40
2013,08,09,11,29,21.20
2013,08,09,11,30,21.10
2013,08,09,11,31,21.00
2013,08,09,11,32,20.80
2013,08,09,11,33,20.70
2013,08,09,11,34,20.70
2013,08,09,11,35,20.60
2013,08,09,11,36,20.60
2013,08,09,11,37,20.60
2013,08,09,11,38,20.60
2013,08,09,11,39,20.60
2013,08,09,11,40,20.70
2013,08,09,11,41,20.80
2013,08,09,11,42,20.90
2013,08,09,11,43,21.00
2013,08,09,11,44,21.10
2013,08,09,11,45,21.30
2013,08,09,11,46,21.40
2013,08,09,11,47,21.50
2013,08,09,11,48,21.60
2013,08,09,11,49,21.80
2013,08,09,11,50,21.90
2013,08,09,11,51,21.90
2013,08,09,11,52,22.00
2013,08,09,11,53,22.10
2013,08,09,11,54,22.20
2013,08,09,11,55,22.30
2013,08,09,11,56,22.50
2013,08,09,11,57,22.60
2013,08,09,11,58,22.60
2013,08,09,11,59,22.60
2013,08,09,12,00,22.60
2013,08,09,12,01,22.60
2013,08,09,12,02,22.60
2013,08,09,12,03,22.60
2013,08,09,12,04,22.50
2013,08,09,12,05,22.40
2013,08,09,12,06,22.40
2013,08,09,12,07,22.30
2013,08,09,12,08,22.30
2013,08,09,12,09,22.20
2013,08,09,12,10,22.10
2013,08,09,12,11,21.90
2013,08,09,12,12,21.80
2013,08,09,12,13,21.60
2013,08,09,12,14,21.60
2013,08,09,12,15,21.60
2013,08,09,12,16,21.60
2013,08,09,12,17,21.60
2013,08,09,12,18,21.70
2013,08,09,12,19,21.80
2013,08,09,12,20,21.90
2013,08,09,12,21,22.00
2013,08,09,12,22,22.20
2013,08,09,12,23,22.20
2013,08,09,12,24,22.10
2013,08,09,12,25,22.20
2013,08,09,12,26,22.20
2013,08,09,12,27,22.20
2013,08,09,12,28,22.20
2013,08,09,12,29,22.20
2013,08,09,12,30,22.30
2013,08,09,12,31,22.30
2013,08,09,12,32,22.40
2013,08,09,12,33,22.40
2013,08,09,12,34,22.30
2013,08,09,12,35,22.10
2013,08,09,12,36,22.00
2013,08,09,12,37,22.00
2013,08,09,12,38,22.00
2013,08,09,12,39,22.00
2013,08,09,12,40,22.00
2013,08,09,12,41,22.10
2013,08,09,12,42,22.20
2013,08,09,12,43,22.20
2013,08,09,12,44,22.30
2013,08,09,12,45,22.40
2013,08,09,12,46,22.50
2013,08,09,12,47,22.60
2013,08,09,12,48,22.60
2013,08,09,12,49,22.50
2013,08,09,12,50,22.20
2013,08,09,12,51,22.00
2013,08,09,12,52,21.70
2013,08,09,12,53,21.40
2013,08,09,12,54,21.30
2013,08,09,12,55,21.30
2013,08,09,12,56,21.40
2013,08,09,12,57,21.50
2013,08,09,12,58,21.60
2013,08,09,12,59,21.60
2013,08,09,13,00,21.70
2013,08,09,13,01,21.70
2013,08,09,13,02,21.80
2013,08,09,13,03,21.90
2013,08,09,13,04,22.00
2013,08,09,13,05,22.10
2013,08,09,13,06,22.10
2013,08,09,13,07,22.10
2013,08,09,13,08,22.00
2013,08,09,13,09,21.90
2013,08,09,13,10,21.80
2013,08,09,13,11,21.60
2013,08,09,13,12,21.60
2013,08,09,13,13,21.60
2013,08,09,13,14,21.60
2013,08,09,13,15,21.60
2013,08,09,13,16,21.40
2013,08,09,13,17,21.50
2013,08,09,13,18,21.60
2013,08,09,13,19,21.60
2013,08,09,13,20,21.60
2013,08,09,13,21,21.70
2013,08,09,13,22,21.70
2013,08,09,13,23,21.70
2013,08,09,13,24,21.70
2013,08,09,13,25,21.60
2013,08,09,13,26,21.60
2013,08,09,13,27,21.70
2013,08,09,13,28,21.70
2013,08,09,13,29,21.60
2013,08,09,13,30,21.60
2013,08,09,13,31,21.60
2013,08,09,13,32,21.60
2013,08,09,13,33,21.60
2013,08,09,13,34,21.60
2013,08,09,13,35,21.40
2013,08,09,13,36,21.40
2013,08,09,13,37,21.40
2013,08,09,13,38,21.40
2013,08,09,13,39,21.50
2013,08,09,13,40,21.60
2013,08,09,13,41,21.70
2013,08,09,13,42,21.80
2013,08,09,13,43,21.90
2013,08,09,13,44,22.00
2013,08,09,13,45,22.20
2013,08,09,13,46,22.20
2013,08,09,13,47,22.30
2013,08,09,13,48,22.30
2013,08,09,13,49,22.30
2013,08,09,13,50,22.30
2013,08,09,13,51,22.20
2013,08,09,13,52,22.10
2013,08,09,13,53,22.00
2013,08,09,13,54,21.90
2013,08,09,13,55,21.90
2013,08,09,13,56,21.80
2013,08,09,13,57,21.70
2013,08,09,13,58,21.50
2013,08,09,13,59,21.30
2013,08,09,14,00,21.30
2013,08,09,14,01,21.30
2013,08,09,14,02,21.30
2013,08,09,14,03,21.40
2013,08,09,14,04,21.40
2013,08,09,14,05,21.40
2013,08,09,14,06,21.40
2013,08,09,14,07,21.50
2013,08,09,14,08,21.60
2013,08,09,14,09,21.60
2013,08,09,14,10,21.60
2013,08,09,14,11,21.60
2013,08,09,14,12,21.60
2013,08,09,14,13,21.60
2013,08,09,14,14,21.60
2013,08,09,14,15,21.60
2013,08,09,14,16,21.60
2013,08,09,14,17,21.60
2013,08,09,14,18,21.70
2013,08,09,14,19,21.90
2013,08,09,14,20,22.00
2013,08,09,14,21,22.00
2013,08,09,14,22,21.90
2013,08,09,14,23,21.80
2013,08,09,14,24,21.80
2013,08,09,14,25,21.80
2013,08,09,14,26,21.90
2013,08,09,14,27,22.00
2013,08,09,14,28,22.00
2013,08,09,14,29,22.10
2013,08,09,14,30,22.20
2013,08,09,14,31,22.30
2013,08,09,14,32,22.40
2013,08,09,14,33,22.50
2013,08,09,14,34,22.40
2013,08,09,14,35,22.20
2013,08,09,14,36,22.10
2013,08,09,14,37,22.10
2013,08,09,14,38,22.10
2013,08,09,14,39,22.10
2013,08,09,14,40,22.20
2013,08,09,14,41,22.20
2013,08,09,14,42,22.40
2013,08,09,14,43,22.50
2013,08,09,14,44,22.60
2013,08,09,14,45,22.60
2013,08,09,14,46,22.70
2013,08,09,14,47,22.70
2013,08,09,14,48,22.60
2013,08,09,14,49,22.60
2013,08,09,14,50,22.60
2013,08,09,14,51,22.70
2013,08,09,14,52,22.70
2013,08,09,14,53,22.70
2013,08,09,14,54,22.70
2013,08,09,14,55,22.70
2013,08,09,14,56,22.80
2013,08,09,14,57,22.80
2013,08,09,14,58,22.90
2013,08,09,14,59,22.90
2013,08,09,15,00,22.90
2013,08,09,15,01,22.90
2013,08,09,15,02,22.90
2013,08,09,15,03,22.90
2013,08,09,15,04,22.90
2013,08,09,15,05,22.90
2013,08,09,15,06,22.90
2013,08,09,15,07,22.90
2013,08,09,15,08,22.80
2013,08,09,15,09,22.90
2013,08,09,15,10,22.90
2013,08,09,15,11,22.90
2013,08,09,15,12,22.90
2013,08,09,15,13,22.90
2013,08,09,15,14,22.90
2013,08,09,15,15,22.90
2013,08,09,15,16,22.90
2013,08,09,15,17,22.90
2013,08,09,15,18,22.90
2013,08,09,15,19,22.90
2013,08,09,15,20,22.90
2013,08,09,15,21,23.00
2013,08,09,15,22,23.10
2013,08,09,15,23,23.20
2013,08,09,15,24,23.20
2013,08,09,15,25,23.20
2013,08,09,15,26,23.20
2013,08,09,15,27,23.30
2013,08,09,15,28,23.30
2013,08,09,15,29,23.30
2013,08,09,15,30,23.30
2013,08,09,15,31,23.40
2013,08,09,15,32,23.50
2013,08,09,15,33,23.60
2013,08,09,15,34,23.70
2013,08,09,15,35,23.70
2013,08,09,15,36,23.80
2013,08,09,15,37,23.80
2013,08,09,15,38,23.80
2013,08,09,15,39,23.80
2013,08,09,15,40,23.80
2013,08,09,15,41,23.90
2013,08,09,15,42,24.00
2013,08,09,15,43,24.10
2013,08,09,15,44,24.10
2013,08,09,15,45,24.10
2013,08,09,15,46,24.00
2013,08,09,15,47,24.00
2013,08,09,15,48,24.10
2013,08,09,15,49,24.10
2013,08,09,15,50,24.10
2013,08,09,15,51,24.10
2013,08,09,15,52,24.10
2013,08,09,15,53,24.00
2013,08,09,15,54,23.90
2013,08,09,15,55,23.90
2013,08,09,15,56,23.90
2013,08,09,15,57,24.00
2013,08,09,15,58,24.10
2013,08,09,15,59,24.10
2013,08,09,16,00,24.30
2013,08,09,16,01,24.40
2013,08,09,16,02,24.30
2013,08,09,16,03,24.30
2013,08,09,16,04,24.30
2013,08,09,16,05,24.30
2013,08,09,16,06,24.30
2013,08,09,16,07,24.10
2013,08,09,16,08,24.10
2013,08,09,16,09,24.10
2013,08,09,16,10,24.10
2013,08,09,16,11,24.10
2013,08,09,16,12,24.10
2013,08,09,16,13,24.10
2013,08,09,16,14,24.10
2013,08,09,16,15,24.10
2013,08,09,16,16,24.10
2013,08,09,16,17,24.00
2013,08,09,16,18,23.90
2013,08,09,16,19,23.80
2013,08,09,16,20,23.70
2013,08,09,16,21,23.70
2013,08,09,16,22,23.70
2013,08,09,16,23,23.70
2013,08,09,16,24,23.70
2013,08,09,16,25,23.70
2013,08,09,16,26,23.70
2013,08,09,16,27,23.70
2013,08,09,16,28,23.70
2013,08,09,16,29,23.70
2013,08,09,16,30,23.70
2013,08,09,16,31,23.70
2013,08,09,16,32,23.70
2013,08,09,16,33,23.70
2013,08,09,16,34,23.80
2013,08,09,16,35,23.80
2013,08,09,16,36,23.90
2013,08,09,16,37,23.90
2013,08,09,16,38,23.90
2013,08,09,16,39,23.90
2013,08,09,16,40,23.90
2013,08,09,16,41,23.80
2013,08,09,16,42,23.80
2013,08,09,16,43,23.80
2013,08,09,16,44,23.70
2013,08,09,16,45,23.70
2013,08,09,16,46,23.70
2013,08,09,16,47,23.70
2013,08,09,16,48,23.70
2013,08,09,16,49,23.80
2013,08,09,16,50,23.80
2013,08,09,16,51,23.80
2013,08,09,16,52,23.90
2013,08,09,16,53,23.90
2013,08,09,16,54,23.90
2013,08,09,16,55,23.90
2013,08,09,16,56,23.90
2013,08,09,16,57,24.10
2013,08,09,16,58,24.10
2013,08,09,16,59,24.10
2013,08,09,17,00,24.10
2013,08,09,17,01,23.90
2013,08,09,17,02,23.90
2013,08,09,17,03,23.80
2013,08,09,17,04,23.70
2013,08,09,17,05,23.60
2013,08,09,17,06,23.50
2013,08,09,17,07,23.40
2013,08,09,17,08,23.40
2013,08,09,17,09,23.40
2013,08,09,17,10,23.40
2013,08,09,17,11,23.40
2013,08,09,17,12,23.40
2013,08,09,17,13,23.40
2013,08,09,17,14,23.30
2013,08,09,17,15,23.30
2013,08,09,17,16,23.30
2013,08,09,17,17,23.30
2013,08,09,17,18,23.30
2013,08,09,17,19,23.20